FW8060 Weather Reports


Display with metric or nautical units.
time (UTC)temp
F
wind
direction
speed
MPH
gust
MPH
rain 1hr
in
rain 24hr
in
rain mn
in
humidity
%
barometer
mb
20260906072536 59 155 3.0 8.0 0.00 0.00 0.00 83 1024.9
20260906071525 58 113 2.0 7.0 0.00 0.00 0.00 84 1024.8
20260906070531 58 133 3.0 8.0 0.00 0.00 0.00 84 1024.9
20260906065528 57 113 2.0 6.0 0.00 0.00 0.00 85 1024.8
20260906064526 56 131 0.0 2.0 0.00 0.00 0.00 87 1024.9
20260906063524 55 131 0.0 3.0 0.00 0.00 0.00 88 1024.9
20260906063311 55 76 1.0 5.0 0.00 0.00 0.00 88 1025.1
20260906061525 55 130 1.0 4.0 0.00 0.00 0.00 88 1025.2
20260906060530 55 130 1.0 5.0 0.00 0.00 0.00 88 1025.2
20260906055524 54 130 1.0 3.0 0.00 0.00 0.00 88 1025.1
20260906054520 54 130 0.0 2.0 0.00 0.00 0.00 88 1025.0
20260906053517 54 130 0.0 3.0 0.00 0.00 0.00 88 1025.0
20260906053354 55 130 1.0 3.0 0.00 0.00 0.00 87 1025.0
20260906051522 55 130 0.0 3.0 0.00 0.00 0.00 87 1025.0
20260906050521 55 130 2.0 4.0 0.00 0.00 0.00 87 1025.1
20260906045520 55 128 3.0 7.0 0.00 0.00 0.00 87 1025.2
20260906044519 55 121 3.0 7.0 0.00 0.00 0.00 86 1025.2
20260906043515 55 136 1.0 3.0 0.00 0.00 0.00 86 1025.4
20260906042518 55 136 2.0 5.0 0.00 0.00 0.00 86 1025.5
20260906042421 55 135 3.0 6.0 0.00 0.00 0.00 86 1025.4
20260906040519 55 135 2.0 6.0 0.00 0.00 0.00 86 1025.6
20260906035516 56 132 1.0 5.0 0.00 0.00 0.00 86 1025.6
20260906034516 56 130 2.0 5.0 0.00 0.00 0.00 86 1025.5
20260906034325 56 117 1.0 5.0 0.00 0.00 0.00 86 1025.6
20260906032511 56 123 2.0 4.0 0.00 0.00 0.00 86 1025.6
20260906032101 56 133 3.0 7.0 0.00 0.00 0.00 85 1025.8
20260906032011 56 123 1.0 3.0 0.00 0.00 0.00 85 1025.7
20260906031611 56 123 1.0 4.0 0.00 0.00 0.00 85 1025.7
20260906024522 56 129 2.0 6.0 0.00 0.00 0.00 85 1026.0
20260906023520 56 134 3.0 6.0 0.00 0.00 0.00 86 1026.2
20260906022516 56 134 2.0 7.0 0.00 0.00 0.00 85 1026.3
20260906021510 56 132 2.0 4.0 0.00 0.00 0.00 85 1026.4
20260906020511 56 128 3.0 5.0 0.00 0.00 0.00 85 1026.5
20260906015511 56 122 2.0 4.0 0.00 0.00 0.00 84 1026.4
20260906014511 56 122 2.0 5.0 0.00 0.00 0.00 84 1026.4
20260906013511 56 126 2.0 4.0 0.00 0.00 0.00 85 1026.5
20260906013444 56 126 2.0 4.0 0.00 0.00 0.00 85 1026.3
20260906012709 56 126 0.0 3.0 0.00 0.00 0.00 85 1026.4
20260906011728 56 126 1.0 3.0 0.00 0.00 0.00 85 1026.2
20260906005515 56 126 0.0 3.0 0.00 0.00 0.00 86 1026.2
20260906004513 56 126 2.0 4.0 0.00 0.00 0.00 85 1026.4
20260906003516 56 126 2.0 3.0 0.00 0.00 0.00 85 1026.4
20260906002512 56 126 2.0 3.0 0.00 0.00 0.00 84 1026.6
20260906001509 57 126 2.0 4.0 0.00 0.00 0.00 84 1026.8
20260906000514 57 327 1.0 4.0 0.00 0.00 0.00 84 1026.6
20260905235510 57 327 1.0 3.0 0.00 0.00 0.00 84 1026.5
20260905235228 57 327 1.0 3.0 0.00 0.00 0.00 83 1026.2
20260905234652 57 327 0.0 2.0 0.00 0.00 0.00 84 1026.3
20260905232518 57 327 1.0 3.0 0.00 0.00 0.00 83 1026.3
20260905231506 57 327 0.0 2.0 0.00 0.00 0.00 83 1026.2
20260905230506 57 327 0.0 2.0 0.00 0.00 0.00 83 1026.2
20260905225503 57 327 0.0 2.0 0.00 0.00 0.00 83 1026.1
20260905224507 57 327 1.0 2.0 0.00 0.00 0.00 85 1026.1
20260905223507 56 327 0.0 0.0 0.00 0.00 0.00 85 1026.1
20260905222503 57 327 0.0 0.0 0.00 0.00 0.00 84 1026.1
20260905221502 57 327 0.0 1.0 0.00 0.00 0.00 83 1026.0
20260905220503 57 327 0.0 1.0 0.00 0.00 0.00 83 1026.1
20260905215456 58 327 0.0 0.0 0.00 0.00 0.00 83 1026.0
20260905214458 57 327 0.0 0.0 0.00 0.00 0.00 84 1026.0
20260905213456 57 327 0.0 0.0 0.00 0.00 0.00 83 1026.0
20260905212452 58 327 0.0 0.0 0.00 0.00 0.00 83 1026.1
20260905211450 58 327 0.0 0.0 0.00 0.00 0.00 83 1026.1
20260905210445 58 327 0.0 0.0 0.00 0.00 0.00 82 1026.2
20260905205447 58 327 0.0 0.0 0.00 0.00 0.00 81 1026.2
20260905204446 59 327 0.0 0.0 0.00 0.00 0.00 80 1026.0
20260905203446 59 327 0.0 0.0 0.00 0.00 0.00 80 1026.0
20260905202445 59 327 0.0 0.0 0.00 0.00 0.00 80 1026.0
20260905201442 59 327 0.0 0.0 0.00 0.00 0.00 80 1026.0
20260905201317 59 327 0.0 0.0 0.00 0.00 0.00 79 1026.0
20260905195439 60 327 0.0 0.0 0.00 0.00 0.00 78 1026.0
20260905194441 60 327 0.0 0.0 0.00 0.00 0.00 78 1026.0
20260905193444 60 327 0.0 0.0 0.00 0.00 0.00 77 1025.9
20260905192442 61 327 0.0 0.0 0.00 0.00 0.00 76 1025.9
20260905191438 61 327 0.0 0.0 0.00 0.00 0.00 75 1026.0
20260905190435 61 327 0.0 0.0 0.00 0.00 0.00 73 1025.7
20260905190240 62 327 0.0 0.0 0.00 0.00 0.00 71 1025.6
20260905184432 63 327 1.0 3.0 0.00 0.00 0.00 69 1025.6
20260905183431 64 327 1.0 3.0 0.00 0.00 0.00 68 1025.6
20260905182433 64 327 2.0 4.0 0.00 0.00 0.00 67 1025.5
20260905181433 65 342 3.0 6.0 0.00 0.00 0.00 66 1025.6
20260905180437 65 340 3.0 8.0 0.00 0.00 0.00 65 1025.7
20260905175436 66 326 3.0 6.0 0.00 0.00 0.00 63 1025.7
20260905174433 66 331 4.0 9.0 0.00 0.00 0.00 62 1025.6
20260905173550 67 296 4.0 9.0 0.00 0.00 0.00 60 1025.3
20260905173437 67 333 3.0 6.0 0.00 0.00 0.00 61 1025.4
20260905171428 67 318 3.0 9.0 0.00 0.00 0.00 61 1025.4
20260905170552 68 338 5.0 11.0 0.00 0.00 0.00 60 1025.3
20260905170432 68 242 4.0 11.0 0.00 0.00 0.00 61 1025.4
20260905165417 69 275 5.0 12.0 0.00 0.00 0.00 59 1025.3
20260905163429 69 333 5.0 12.0 0.00 0.00 0.00 59 1025.3
20260905162430 69 337 6.0 13.0 0.00 0.00 0.00 59 1025.1
20260905161435 69 317 4.0 9.0 0.00 0.00 0.00 58 1025.1
20260905161414 70 0 5.0 11.0 0.00 0.00 0.00 60 1025.0
20260905160630 69 336 4.0 12.0 0.00 0.00 0.00 60 1025.2
20260905154428 70 239 4.0 9.0 0.00 0.00 0.00 59 1025.0
20260905153427 70 274 5.0 11.0 0.00 0.00 0.00 59 1025.0
20260905152424 70 288 5.0 12.0 0.00 0.00 0.00 60 1024.8
20260905151427 71 355 5.0 12.0 0.00 0.00 0.00 59 1024.7
20260905151357 70 323 5.0 11.0 0.00 0.00 0.00 59 1024.7
20260905145426 71 271 5.0 11.0 0.00 0.00 0.00 59 1024.7
20260905144426 70 292 5.0 12.0 0.00 0.00 0.00 59 1024.6
20260905143422 71 327 5.0 12.0 0.00 0.00 0.00 58 1024.5
20260905143136 71 271 5.0 12.0 0.00 0.00 0.00 58 1024.5
20260905142723 71 336 6.0 12.0 0.00 0.00 0.00 57 1024.5
20260905142442 71 268 5.0 10.0 0.00 0.00 0.00 59 1024.5
20260905140417 71 253 5.0 12.0 0.00 0.00 0.00 58 1024.5
20260905135624 71 257 5.0 13.0 0.00 0.00 0.00 56 1024.5
20260905133421 71 275 5.0 12.0 0.00 0.00 0.00 58 1024.3
20260905133352 71 249 5.0 13.0 0.00 0.00 0.00 58 1024.5
20260905131422 71 213 5.0 12.0 0.00 0.00 0.00 58 1024.5
20260905130415 71 299 6.0 12.0 0.00 0.00 0.00 59 1024.4
20260905125418 70 328 6.0 12.0 0.00 0.00 0.00 59 1024.5
20260905124416 70 340 7.0 18.0 0.00 0.05 0.00 60 1024.2
20260905123419 69 303 6.0 13.0 0.00 0.05 0.00 63 1024.3
20260905122410 71 265 5.0 12.0 0.00 0.05 0.00 59 1024.2
20260905121411 71 261 5.0 12.0 0.00 0.05 0.00 60 1024.1
20260905120850 70 275 6.0 13.0 0.00 0.05 0.00 64 1024.0
20260905115409 69 258 6.0 12.0 0.00 0.05 0.00 64 1024.0
20260905114418 69 313 6.0 11.0 0.00 0.05 0.00 62 1023.9
20260905113422 69 241 5.0 11.0 0.00 0.05 0.00 65 1024.0
20260905112414 69 295 6.0 11.0 0.00 0.05 0.00 64 1024.0
20260905111415 69 313 5.0 11.0 0.00 0.05 0.00 64 1023.9
20260905110412 69 296 5.0 11.0 0.00 0.05 0.00 64 1023.8
20260905105412 68 333 6.0 12.0 0.00 0.05 0.00 65 1023.7
20260905104411 68 299 6.0 12.0 0.00 0.05 0.00 67 1023.6
20260905103409 67 246 5.0 11.0 0.00 0.05 0.00 67 1023.5
20260905102405 67 290 6.0 13.0 0.00 0.05 0.00 67 1023.5
20260905101405 67 265 5.0 12.0 0.00 0.05 0.00 70 1023.4
20260905100404 66 261 6.0 12.0 0.00 0.05 0.00 72 1023.3
20260905095405 65 288 4.0 12.0 0.00 0.05 0.00 76 1023.2
20260905094409 66 309 5.0 14.0 0.00 0.05 0.00 73 1023.1
20260905093404 65 273 5.0 10.0 0.00 0.05 0.00 78 1023.1
20260905093357 65 281 5.0 13.0 0.00 0.05 0.00 78 1023.0
20260905092300 64 297 5.0 11.0 0.00 0.05 0.00 80 1022.9
20260905091249 65 287 5.0 10.0 0.00 0.05 0.00 82 1022.6
20260905091057 65 248 4.0 11.0 0.00 0.05 0.00 79 1022.7
20260905090523 65 240 6.0 12.0 0.00 0.05 0.00 80 1022.8
20260905084301 64 232 6.0 12.0 0.00 0.05 0.00 83 1022.4
20260905082403 63 265 6.0 13.0 0.00 0.05 0.00 84 1022.4
20260905081404 63 248 6.0 12.0 0.00 0.05 0.00 85 1022.2
20260905080404 63 275 3.0 10.0 0.00 0.05 0.00 85 1022.1
20260905075414 62 232 4.0 9.0 0.00 0.05 0.00 86 1022.0
20260905075347 62 265 5.0 10.0 0.00 0.05 0.00 87 1021.9
20260905074356 60 254 3.0 8.0 0.00 0.05 0.00 88 1021.8